Location: Newark
(35.5300°N, 14.3000°E)
Time: 17:23:53
(UTC+00:00)

A-11 Canister half - All Passes

Search period start: 18 November 2019 00:00
Search period end: 28 November 2019 00:00
Orbit: 1514 x 1686 km, 47.2° (Epoch: 18 November)

Date Brightness Start Highest point End Pass type
(mag) Time Alt. Az. Time Alt. Az. Time Alt. Az.
18 Nov - 01:09:47 10° WNW 01:18:24 34° SW 01:26:47 10° S visible
18 Nov - 14:20:31 10° S 14:27:54 24° SE 14:35:24 10° ENE daylight
18 Nov - 16:21:50 10° SW 16:31:52 81° SE 16:42:05 10° ENE visible
18 Nov - 18:27:54 10° W 18:37:41 50° NNW 18:47:31 10° ENE visible
18 Nov - 20:35:06 10° WNW 20:44:45 44° N 20:54:15 10° E visible
18 Nov - 22:40:53 10° NW 22:51:05 78° NNE 23:00:58 10° ESE night (unlit)
19 Nov - 00:46:42 10° WNW 00:55:32 37° SW 01:04:08 10° SSE night (unlit)
19 Nov - 13:58:03 10° S 14:05:03 22° SE 14:12:09 10° E daylight
19 Nov - 15:58:57 10° SW 16:08:55 77° SE 16:19:06 10° ENE visible
19 Nov - 18:04:51 10° W 18:14:39 51° NNW 18:24:31 10° ENE visible
19 Nov - 20:12:04 10° WNW 20:21:41 44° N 20:31:11 10° ENE visible
19 Nov - 22:17:53 10° NW 22:28:07 75° NNE 22:38:00 10° ESE visible
20 Nov - 00:23:37 10° WNW 00:32:40 40° SW 00:41:28 10° SSE night (unlit)
20 Nov - 13:35:38 10° SSE 13:42:12 20° SE 13:48:52 10° E daylight
20 Nov - 15:36:05 10° SW 15:45:59 73° SE 15:56:08 10° ENE daylight
20 Nov - 17:41:47 10° W 17:51:36 53° NNW 18:01:31 10° ENE visible
20 Nov - 19:49:00 10° WNW 19:58:37 44° N 20:08:06 10° ENE visible
20 Nov - 21:54:56 10° NW 22:05:07 72° NNE 22:15:02 10° ESE visible
21 Nov - 00:00:34 10° WNW 00:09:48 43° SW 00:18:46 10° SSE night (unlit)
21 Nov - 13:13:17 10° SSE 13:19:22 18° ESE 13:25:32 10° E daylight
21 Nov - 15:13:13 10° SW 15:23:03 69° SE 15:33:09 10° ENE daylight
21 Nov - 17:18:43 10° W 17:28:34 54° NNW 17:38:31 10° NE visible
21 Nov - 19:25:58 10° WNW 19:35:32 43° N 19:45:03 10° ENE visible
21 Nov - 21:31:56 10° NW 21:42:07 69° NNE 21:52:03 10° ESE visible
21 Nov - 23:37:30 10° WNW 23:46:55 46° SW 23:56:04 10° SSE night (unlit)
22 Nov - 12:51:01 10° SSE 12:56:32 16° ESE 13:02:06 10° E daylight
22 Nov - 14:50:23 10° SW 15:00:07 66° SE 15:10:09 10° ENE daylight
22 Nov - 16:55:41 10° W 17:05:32 56° NNW 17:15:32 10° NE visible
22 Nov - 19:02:54 10° WNW 19:12:28 43° N 19:21:58 10° ENE visible
22 Nov - 21:08:57 10° NW 21:19:08 66° NNE 21:29:03 10° ESE visible
22 Nov - 23:14:28 10° WNW 23:24:02 49° SW 23:33:18 10° SSE night (unlit)
23 Nov - 12:28:53 10° SSE 12:33:42 15° ESE 12:38:35 10° E daylight
23 Nov - 14:27:33 10° SW 14:37:12 62° SE 14:47:09 10° ENE daylight
23 Nov - 16:32:38 10° W 16:42:30 58° NNW 16:52:33 10° NE visible
23 Nov - 18:39:51 10° WNW 18:49:24 43° N 18:58:55 10° ENE visible
23 Nov - 20:45:59 10° NW 20:56:07 64° NNE 21:06:03 10° ESE visible
23 Nov - 22:51:27 10° WNW 23:01:08 52° SW 23:10:33 10° SSE night (unlit)
24 Nov - 01:02:38 10° WSW 01:04:26 11° WSW 01:06:15 10° SW night (unlit)
24 Nov - 12:06:54 10° SE 12:10:53 13° ESE 12:14:53 10° E daylight
24 Nov - 14:04:45 10° SSW 14:14:18 58° SE 14:24:08 10° ENE daylight
24 Nov - 16:09:37 10° WSW 16:19:29 60° NNW 16:29:34 10° NE visible
24 Nov - 18:16:48 10° WNW 18:26:19 43° N 18:35:51 10° ENE visible
24 Nov - 20:23:00 10° NW 20:33:07 61° NNE 20:43:01 10° ESE visible
24 Nov - 22:28:26 10° WNW 22:38:14 56° SW 22:47:47 10° SSE night (unlit)
25 Nov - 00:38:12 10° W 00:41:37 12° WSW 00:45:01 10° SW night (unlit)
25 Nov - 11:45:15 10° SE 11:48:04 11° ESE 11:50:52 10° ESE daylight
25 Nov - 13:41:57 10° SSW 13:51:24 55° SE 14:01:08 10° ENE daylight
25 Nov - 15:46:36 10° WSW 15:56:28 62° NNW 16:06:34 10° NE daylight
25 Nov - 17:53:44 10° WNW 18:03:15 43° N 18:12:47 10° ENE visible
25 Nov - 20:00:01 10° NW 20:10:05 59° NNE 20:20:01 10° ESE visible
25 Nov - 22:05:25 10° WNW 22:15:19 60° SW 22:24:59 10° SSE visible
26 Nov - 00:14:22 10° W 00:18:48 14° WSW 00:23:11 10° SSW night (unlit)
26 Nov - 13:19:11 10° SSW 13:28:30 51° SE 13:38:06 10° ENE daylight
26 Nov - 15:23:36 10° WSW 15:33:27 65° NNW 15:43:35 10° NE daylight
26 Nov - 17:30:41 10° WNW 17:40:10 43° N 17:49:44 10° ENE visible
26 Nov - 19:37:02 10° NW 19:47:04 57° NNE 19:56:58 10° E visible
26 Nov - 21:42:25 10° WNW 21:52:24 63° SW 22:02:10 10° SE visible
26 Nov - 23:50:45 10° W 23:55:58 15° WSW 00:01:07 10° SSW night (unlit)
27 Nov - 12:56:27 10° SSW 13:05:36 48° SE 13:15:04 10° ENE daylight
27 Nov - 15:00:35 10° WSW 15:10:27 67° NNW 15:20:37 10° NE daylight
27 Nov - 17:07:36 10° WNW 17:17:05 43° N 17:26:40 10° ENE visible
27 Nov - 19:14:03 10° NW 19:24:02 55° NNE 19:33:55 10° E visible
27 Nov - 21:19:25 10° WNW 21:29:29 67° SW 21:39:19 10° SE visible
27 Nov - 23:27:17 10° W 23:33:08 17° WSW 23:38:55 10° SSW night (unlit)
